Theta_e
317 318 321 320 320 318 320 324 325 322 321 321 321 322 320 314 314 316 316 315 313 311 308 308 307 307 307 307 308 309 311 312 313 314 313 312 310 310 309 309 309 309 309 309
317 319 318 317 317 317 319 320 322 322 317 317 319 321 319 316 315 316 316 315 313 310 309 307 307 308 307 307 307 307 309 310 312 312 312 310 309 309 308 307 307 307 306 307
318 317 316 316 317 318 318 320 321 322 320 316 316 319 319 318 315 315 315 315 313 311 310 308 306 306 306 304 304 305 306 308 310 310 310 309 309 308 307 305 303 304 303 305
316 315 315 316 317 317 319 316 316 319 321 325 318 329 326 320 316 314 314 314 313 311 309 308 306 305 304 302 302 303 303 304 305 308 309 309 308 307 305 303 301 300 300 300
316 315 316 317 317 316 317 315 317 319 321 321 320 323 322 320 319 316 314 313 312 311 309 307 305 302 302 300 301 301 301 302 302 304 306 306 306 304 302 301 300 300 298 296
315 311 314 316 315 315 315 315 316 317 318 326 321 322 323 321 320 318 316 313 312 310 308 305 303 300 300 300 300 300 300 299 300 301 302 303 303 302 301 301 300 299 297 294
313 313 312 312 315 314 314 315 322 324 324 321 317 322 322 320 317 317 317 314 312 309 307 303 300 299 299 299 299 299 298 297 297 297 298 298 298 298 298 297 297 296 293 292
314 315 314 312 314 315 315 315 319 323 323 321 316 320 320 314 310 311 310 314 311 308 305 302 300 299 298 297 297 296 295 294 294 293 293 294 294 293 293 293 293 292 290 289
312 313 313 313 313 314 314 317 314 316 318 319 318 317 315 310 308 309 310 312 310 307 304 301 299 296 295 294 294 294 292 291 291 291 290 290 290 290 289 289 289 288 288 287
311 313 313 312 311 313 314 314 315 317 322 321 318 318 319 315 312 308 309 310 308 304 301 298 296 294 292 292 290 290 290 289 288 288 288 287 286 286 286 286 286 286 286 286
310 312 312 311 313 315 314 316 315 315 316 318 318 318 313 314 313 310 309 307 305 302 299 296 294 291 290 288 288 288 287 286 285 285 285 285 284 284 284 284 284 285 285 285
310 311 314 313 312 312 314 315 316 318 317 317 318 318 311 310 308 309 308 305 304 301 298 296 293 290 289 288 287 286 285 284 284 284 283 283 283 283 283 283 283 283 284 284
309 314 316 315 313 311 312 314 315 316 316 318 319 317 307 307 307 307 307 304 303 299 297 295 291 289 289 287 286 285 284 284 283 283 282 282 282 282 282 282 282 282 283 283
309 310 312 313 311 312 313 313 315 316 318 319 318 316 315 310 309 307 305 303 301 299 297 294 291 290 288 287 286 285 284 283 282 282 282 281 281 281 281 281 281 281 282 282
310 314 311 311 311 311 312 313 315 317 317 319 319 317 316 316 316 308 305 303 300 298 296 294 292 290 288 286 285 284 283 282 282 282 281 281 281 281 280 280 280 280 280 280
309 313 312 312 311 312 312 311 313 315 316 317 317 318 317 312 312 309 305 302 300 299 296 294 292 290 288 286 284 283 282 282 281 281 281 281 280 280 280 280 279 279 279 279
310 312 313 314 311 312 313 311 311 312 314 314 316 316 315 314 308 309 306 303 301 299 297 295 292 289 287 285 284 283 282 281 281 281 280 280 280 279 279 279 279 278 278 278
306 310 312 314 312 314 311 309 309 309 309 311 312 312 312 314 311 307 307 304 301 300 297 295 292 289 287 285 283 283 282 281 281 281 280 279 279 279 278 278 278 278 278 277
303 305 312 314 316 313 311 309 309 309 309 308 310 310 310 310 304 306 306 304 303 300 298 295 291 289 286 284 283 282 281 281 280 280 279 279 279 278 278 278 278 278 277 277
303 304 310 314 314 315 313 310 308 309 310 309 309 309 309 309 309 310 307 303 302 300 297 294 291 288 286 284 282 281 281 280 280 279 279 278 278 278 278 277 277 277 277 277
307 307 309 313 315 312 309 309 307 311 312 309 309 309 308 309 309 309 303 302 301 299 295 292 289 287 285 283 281 281 280 280 279 278 278 277 277 277 277 277 276 276 276 276
306 310 311 312 314 313 309 309 310 310 307 308 308 307 308 308 307 306 301 300 298 296 293 290 288 286 284 282 281 280 280 279 278 278 277 277 277 276 276 276 275 275 275 275
303 304 306 311 312 304 305 308 308 307 307 306 303 304 305 305 305 300 299 298 297 294 292 288 287 285 283 281 281 280 279 278 277 277 276 276 276 276 275 275 275 274 275 275
302 299 303 304 304 306 301 299 301 303 303 301 300 300 300 303 301 297 296 296 294 291 289 287 285 283 281 280 280 280 278 278 278 276 276 276 275 275 275 274 274 275 275 275
300 300 302 301 300 301 302 304 301 299 298 297 297 297 298 299 296 295 294 293 291 288 287 286 285 283 281 280 279 279 278 278 277 276 276 275 274 274 274 274 274 274 275 275
296 298 301 303 303 303 304 303 297 299 299 298 296 294 294 295 294 293 292 290 288 287 285 285 284 283 281 279 279 278 278 279 277 275 274 274 274 274 273 273 273 274 274 274
Wind_Speed
9 6 7 9 7 2 4 8 7 10 3 9 18 17 16 11 11 12 11 9 8 8 4 2 3 5 7 7 6 6 4 4 3 3 3 5 9 9 9 10 10 11 12 12
6 11 8 3 4 3 3 4 6 3 4 3 10 19 18 13 14 14 14 13 11 8 8 6 4 4 5 6 6 6 5 5 4 4 5 7 7 8 9 10 11 11 12 13
11 3 10 8 7 8 6 6 5 6 9 3 5 12 19 15 16 14 13 12 12 12 11 9 8 5 5 5 5 5 5 5 5 6 8 9 9 7 6 8 9 12 13 14
12 6 6 10 11 10 8 3 7 6 7 4 11 6 14 22 19 18 16 16 15 15 12 12 11 7 5 5 4 5 5 5 5 5 6 5 4 4 5 6 7 10 12 14
4 10 11 14 11 12 6 3 4 6 8 8 8 6 6 10 20 20 21 20 18 17 15 13 13 9 5 5 5 4 5 6 6 7 6 7 7 7 5 4 7 9 11 14
10 1 12 13 9 10 3 2 2 4 6 6 15 9 7 8 19 19 20 21 20 18 15 15 12 11 7 6 6 5 6 6 7 8 9 8 8 7 5 4 7 8 10 12
14 8 3 4 10 8 9 6 2 4 5 6 2 11 15 8 10 14 17 19 19 16 15 14 14 13 11 9 8 7 6 7 5 9 9 9 9 9 7 6 7 9 10 11
13 10 16 12 15 8 18 15 5 5 3 6 3 8 5 3 5 2 6 17 16 16 14 13 15 12 10 9 8 8 8 8 7 9 9 7 7 8 9 9 10 11 11 12
14 14 8 11 12 14 13 18 16 13 7 5 9 12 10 5 2 4 6 15 16 16 15 13 14 13 11 9 9 9 8 9 9 9 10 8 8 9 11 11 11 12 11 11
6 9 10 10 2 12 9 9 12 8 4 7 8 12 11 7 10 9 12 15 16 15 15 13 15 14 12 9 9 9 10 9 10 12 11 10 10 11 13 14 14 14 13 12
8 7 3 3 13 15 9 11 12 9 13 4 5 4 3 5 2 13 14 15 16 16 15 14 16 14 12 12 11 12 11 12 10 11 12 12 12 12 13 13 13 13 12 12
14 5 11 10 1 9 13 22 21 10 7 13 12 19 6 3 2 4 11 13 15 16 15 14 17 17 16 15 14 13 13 12 11 13 12 12 12 13 13 13 12 11 12 11
12 6 7 5 6 7 8 15 20 20 14 16 9 7 3 4 6 7 10 14 15 16 16 13 17 18 18 17 16 14 13 13 13 13 13 12 12 12 13 12 12 11 11 11
2 12 14 18 15 10 10 17 19 18 12 23 22 23 12 8 7 9 11 14 16 17 17 15 15 18 18 18 18 17 16 15 14 14 14 13 12 12 12 12 12 11 10 10
7 7 17 23 19 15 12 17 21 22 29 18 33 24 22 21 16 14 14 14 17 19 20 18 17 20 22 21 20 19 18 17 16 15 15 14 13 13 13 12 12 11 10 9
7 10 11 19 20 20 8 11 15 25 32 25 34 27 19 8 8 13 16 18 17 19 21 19 18 23 24 25 24 22 21 19 19 17 16 15 15 13 13 12 12 11 10 9
5 7 9 21 15 14 13 23 28 20 23 24 24 36 11 15 10 13 16 18 21 22 22 22 21 26 27 28 27 25 24 22 21 19 17 16 15 14 13 13 12 11 10 9
6 6 7 10 8 19 18 22 21 29 29 25 28 29 17 18 14 15 14 20 20 19 22 21 27 29 30 29 28 25 25 23 22 20 19 17 16 15 14 13 12 11 9 9
18 10 8 10 11 11 13 21 21 20 31 25 30 34 24 20 3 13 19 18 21 23 21 28 32 32 32 32 31 29 26 25 23 22 20 19 18 17 16 15 14 12 10 9
19 20 13 9 11 15 20 15 8 4 18 27 26 30 27 15 11 24 15 20 21 26 31 34 36 35 34 34 33 31 28 26 25 24 23 22 21 19 17 17 15 13 10 9
7 12 24 20 15 9 23 4 10 11 15 6 21 27 22 19 26 24 9 20 19 25 33 37 38 38 37 36 34 30 29 27 26 25 25 24 23 20 18 18 16 15 12 11
11 6 14 14 17 24 21 13 19 22 6 18 18 7 10 21 21 13 9 13 17 22 33 38 36 35 38 39 38 32 29 27 28 29 29 27 26 23 21 19 17 15 13 13
19 17 9 5 5 13 17 15 16 8 6 8 3 4 5 8 12 7 8 14 18 24 32 35 35 34 34 37 37 33 30 33 34 32 31 29 26 23 21 20 18 16 15 13
14 5 9 12 15 16 8 6 15 9 12 5 4 4 5 11 8 9 10 13 15 24 30 35 34 33 33 37 35 33 36 38 37 35 32 30 28 24 21 19 18 17 17 15
10 5 12 18 22 16 17 11 13 14 11 9 7 6 9 8 10 10 12 14 15 23 29 34 33 32 33 36 33 35 41 41 38 35 33 30 28 25 23 21 20 19 17 18
12 16 11 13 9 11 15 6 3 14 17 13 10 8 6 9 10 10 11 14 19 23 28 28 29 30 32 35 33 40 42 41 40 34 32 31 28 26 23 21 17 17 15 19
Wind_Direction
187 205 201 194 210 30 302 212 194 225 230 245 232 240 220 195 214 206 204 197 197 162 153 135 106 101 98 93 84 80 87 102 163 163 124 100 95 85 78 71 69 60 50 53
176 226 203 196 197 221 214 212 233 193 135 209 258 250 247 199 223 217 207 199 196 177 176 166 152 127 105 97 88 80 78 88 118 142 118 120 113 97 88 72 68 63 53 50
209 96 207 203 199 211 224 240 238 253 181 241 307 262 242 225 224 223 222 203 199 197 186 174 170 165 139 110 91 85 82 86 104 128 126 127 122 102 78 62 57 54 51 55
235 160 204 204 220 215 232 208 256 239 205 244 180 285 225 216 219 216 212 204 205 201 192 190 168 173 168 135 109 98 94 99 84 111 135 155 164 125 86 72 65 59 52 48
181 199 188 208 216 206 243 107 202 204 221 281 215 262 256 216 213 217 214 207 203 202 190 196 176 167 171 144 131 117 108 93 95 96 120 127 116 111 98 84 74 64 49 50
237 17 233 226 215 205 125 172 182 255 256 256 235 217 248 196 224 227 210 209 201 196 187 187 174 160 171 155 147 136 129 103 104 103 96 107 119 116 111 105 82 71 57 49
217 211 203 237 197 203 205 186 229 221 206 248 22 219 253 237 218 232 215 201 197 188 186 178 177 171 174 170 160 146 136 110 111 101 100 103 107 112 110 101 91 83 69 58
213 218 200 185 216 196 205 205 204 237 236 307 101 247 256 297 352 120 295 186 181 183 188 179 178 170 177 175 161 152 152 128 112 116 106 101 110 117 108 105 97 89 80 70
210 230 166 185 200 212 197 220 232 283 275 274 247 247 263 201 219 218 185 169 177 184 184 180 169 168 179 177 163 155 145 131 130 117 109 105 111 112 112 104 100 95 87 77
265 266 175 184 228 233 261 212 210 225 244 246 253 263 260 236 223 198 187 187 182 181 180 178 174 176 166 172 161 151 147 142 133 123 122 129 121 122 116 115 106 98 92 87
263 249 103 146 209 207 196 221 218 229 230 254 290 263 34 9 326 202 199 195 189 184 184 177 175 171 168 166 168 159 150 139 130 132 138 130 132 125 117 111 107 105 100 91
212 276 243 218 317 250 242 220 215 220 214 233 259 265 208 134 122 196 200 195 190 187 186 180 175 172 176 171 170 164 150 140 151 146 140 142 136 128 119 115 113 110 103 95
186 226 237 233 238 216 236 233 235 231 253 247 225 249 53 186 211 209 193 186 185 184 187 181 179 182 178 172 170 164 152 160 157 146 149 145 138 131 125 121 116 112 107 99
290 234 224 230 230 192 209 218 225 236 232 242 242 248 238 213 220 195 190 187 187 187 186 185 184 184 182 177 171 165 164 169 160 154 155 148 145 138 132 126 123 119 113 109
228 247 238 249 257 270 269 223 216 217 232 223 246 244 244 253 246 210 190 187 189 192 191 189 186 184 181 176 173 169 171 167 164 161 159 153 149 144 139 134 129 126 124 117
226 256 257 266 254 246 244 252 241 226 234 238 251 260 248 276 297 185 192 191 198 199 195 191 188 183 180 178 176 173 172 170 168 168 162 157 154 151 147 140 138 136 131 126
201 216 219 249 238 247 241 229 231 244 237 239 248 246 262 247 227 202 203 198 201 199 192 192 189 183 180 178 175 176 174 170 169 167 164 163 160 155 154 152 147 146 144 139
277 226 227 249 237 234 237 242 233 239 243 241 249 257 254 249 235 223 210 195 202 199 195 191 185 182 180 175 175 173 171 169 170 170 168 165 163 162 162 160 160 159 154 149
214 240 239 240 238 266 257 233 221 228 249 241 243 250 244 243 20 263 215 198 201 197 192 187 182 178 174 173 172 168 169 171 171 172 170 170 169 167 168 170 171 169 164 158
230 210 234 211 236 236 244 244 195 178 264 237 236 245 239 212 231 252 193 196 202 192 181 176 177 174 173 173 170 168 171 172 176 174 173 173 175 174 174 176 175 174 172 170
219 219 222 227 232 237 253 189 139 180 242 299 225 242 235 215 220 239 179 198 190 177 172 170 172 174 172 169 168 170 171 177 175 172 175 176 180 177 178 178 183 176 178 177
237 248 222 233 237 238 241 184 195 223 222 246 263 229 242 226 233 247 171 176 174 170 169 170 170 172 170 169 169 171 174 172 172 176 180 183 183 182 184 186 182 181 183 184
247 237 264 244 251 321 331 248 240 252 278 243 190 243 256 265 238 185 181 172 174 172 170 170 169 166 168 170 173 169 172 169 175 180 182 183 183 184 187 186 187 185 189 190
240 203 244 254 244 241 276 286 296 307 275 280 245 232 217 230 185 176 169 170 170 169 169 169 167 168 169 173 175 172 170 178 180 180 184 185 186 187 189 190 196 195 198 198
265 240 252 257 264 282 276 272 281 282 299 294 286 249 217 199 186 173 173 172 173 171 170 172 173 173 172 170 169 172 179 183 180 183 184 186 190 192 192 197 204 205 214 214
242 248 244 255 264 238 261 228 195 313 304 280 259 272 250 185 181 169 175 171 170 170 170 174 176 172 170 168 167 179 186 184 182 177 182 187 189 193 199 202 207 213 217 221